Regional Weather Roundup
Issued by NWS State College, PA

Home | Current Version | Previous Version | Text Only | Print | Product List | Glossary Off
Versions: 1 2 3 4 5 6 7 8 9 10 11 12 13 14 15 16 17 18 19 20 21 22 23 24 25 26 27 28 29 30 31 32 33 34 35 36 37 38 39 40 41 42 43 44 45 46 47 48 49 50

000
ASUS41 KCTP 261710
RWRCTP

REGIONAL WEATHER ROUNDUP
NATIONAL WEATHER SERVICE STATE COLLEGE PA
100 PM EDT SUN APR 26 2015

Note: "fair" indicates few or no clouds below 12,000 feet with no
significant weather and/or obstructions to visibility.

* = STATION THAT DOES NOT REPORT PRECIPITATION /E.G. RAIN...SNOW...ETC/
    THUNDER OR FOG.

PAZ002>004-007>009-013>016-020>023-029>032-261800-
WESTERN PENNSYLVANIA

CITY           SKY/WX    TMP DP  RH WIND       PRES   REMARKS
ERIE           SUNNY     45  31  58 N8        29.85S
MEADVILLE      PTSUNNY   52  26  36 N10G17    29.80F
FRANKLIN*      MOSUNNY   52  27  37 N9        29.79F
NEW CASTLE     FAIR      55  28  35 N10G16    29.81F
BEAVER COUNTY  MOSUNNY   54  28  37 N5G17     29.79
BUTLER*        MOSUNNY   54  28  37 NE14G20   29.79F
PITTSBURGH INT MOSUNNY   55  26  32 N12G17    29.77F
PITTSBURGH     SUNNY     56  22  26 NW8G16    29.76S
INDIANA*       SUNNY     54  28  37 NE10G17   29.79F
LATROBE        MOSUNNY   54  28  37 N6        29.77F
WASHINGTON CO* SUNNY     55  28  35 E12       29.78F
$$

PAZ004>006-010>012-017>019-024>028-033>037-041-042-045-046-049>053-261800-
CENTRAL PENNSYLVANIA

CITY           SKY/WX    TMP DP  RH WIND       PRES   REMARKS
BRADFORD       CLOUDY    48  23  37 N8G18     29.77S
DUBOIS         MOSUNNY   55  25  31 N6        29.74F
CLEARFIELD     PTSUNNY   54  25  32 VRB7      29.74F
JOHNSTOWN      SUNNY     51  24  34 N12G18    29.72F
ALTOONA        SUNNY     53  28  38 MISG      29.74F
STATE COLLEGE  SUNNY     54  27  35 N3        29.73F
WILLIAMSPORT   PTSUNNY   56  27  32 N13       29.73S
SELINSGROVE    MOSUNNY   56  32  40 VRB6      29.74F
FT INDIANTOWN  SUNNY     57  27  31 NW8       29.71F
CAPITAL CITY   SUNNY     56  29  35 NW13      29.72F
HARRISBURG     MOSUNNY   57  33  40 W13       29.71F
YORK           SUNNY     57  31  37 NW7       29.71F
$$

PAZ038>040-043-044-047-048-054-055-060>062-067>071-261800-
EASTERN PENNSYLVANIA

CITY           SKY/WX    TMP DP  RH WIND       PRES   REMARKS
SCRANTON       CLOUDY    53  28  38 W9        29.71F
MOUNT POCONO   PTSUNNY   49  25  39 VRB3      29.68F
ALLENTOWN      MOSUNNY   58  31  35 CALM      29.70F
QUAKERTOWN*    MOSUNNY   57  30  35 NE5       29.70F
READING        SUNNY     56  28  34 VRB3      29.70F
LANCASTER      MOSUNNY   57  31  37 NW12G17   29.70F
COATESVILLE    SUNNY     57  30  35 N5        29.70S
POTTSTOWN      SUNNY     57  29  34 VRB5      29.71F
BLUE BELL      MOSUNNY   57  30  35 CALM      29.69F
DOYLESTOWN     PTSUNNY   57  31  37 CALM      29.68F
WILLOW GROVE   NOT AVBL
NORTH PHILA    PTSUNNY   60  30  32 VRB5      29.71F
PHILADELPHIA   MOSUNNY   61  30  31 SE6       29.70F
$$


USA.gov is the U.S. government's official web portal to all federal, state and local government web resources and services.